Location: Biharia
(46.4333°N, 22.8000°E)
Time: 23:50:20
(UTC+00:00)

H-2A R/B - Pass Details

Date: 16 October 2021
Orbit: 577 x 654 km, 98.5° (Epoch: 26 November)

Event Time Altitude Azimuth Distance (km) Brightness Sun altitude
Rises 18:12:51 0° 5° (N) 2,805 5.6 -26.9°
Reaches altitude 10° 18:15:08 10° 356° (N) 1,901 4.8 -27.3°
Maximum altitude 18:18:49 33° 292° (WNW) 993 3.6 -27.9°
Drops below altitude 10° 18:22:30 10° 229° (SW) 1,902 4.9 -28.5°
Sets 18:24:48 0° 219° (SW) 2,806 5.7 -28.8°
